[[{"header":{"parameterUnit":"m.s-1","parameterCategory":1,"la1":30.2991,"la2":30.254,"lo1":-89.0895,"lo2":-89.0444,"dy":0.0017,"dx":0.0017,"nx":28,"ny":28,"refTime":"2025-09-07T09:00:00:Z","depth":0,"parameterNumber":2,"parameterNumberName":"U-component_of_WINDS"},"data":[0,0,0,0,0,0,0,0,0,0,0,0,0,0,0,0,0,0,0,0,0,0,0,0,0,0,0,0,0,0,0,0,0,0,0,0,0,0,0,0,0,0,0,0,0,0,0,0,0,0,0,0,0,0,0,0,0,0,-0.9593,-0.9592,0,-0.9563,-0.9562,-0.9562,-0.952,-0.9519,-0.9519,-0.9518,-0.9488,-0.9488,-0.9488,0,0,0,0,0,0,0,0,0,0,0,0,0,-0.9614,-0.9614,-0.9593,-0.9592,-0.9592,-0.9563,-0.9562,-0.9562,-0.952,-0.9519,-0.9519,-0.9518,-0.9488,-0.9488,-0.9488,0,0,0,0,0,0,0,0,0,0,0,0,0,-0.9597,-0.9614,-0.9593,-0.9568,-0.9565,-0.9563,-0.9562,-0.9562,-0.952,-0.9519,-0.9518,-0.9517,-0.9488,-0.9488,-0.9488,-0.9508,0,0,-0.9487,-0.9487,0,0,0,0,0,0,0,0,-0.9598,-0.9596,-0.9572,-0.9569,-0.9566,-0.9544,-0.9559,-0.9544,-0.9521,-0.9537,-0.9518,-0.9517,-0.9508,-0.9506,-0.9503,-0.9507,-0.9505,-0.9487,-0.9487,-0.9487,-0.9487,0,0,0,0,0,0,0,-0.9599,-0.9597,-0.9581,-0.9571,-0.9568,-0.9558,-0.9554,-0.9556,-0.9529,-0.9536,-0.9533,-0.953,-0.9506,-0.9503,-0.9502,-0.9505,-0.9487,-0.9487,-0.9487,-0.9487,-0.9523,-0.9524,0,0,0,0,0,0,-0.9604,-0.9598,-0.9582,-0.958,-0.958,-0.9558,-0.9554,-0.9552,-0.9529,-0.9524,-0.9531,-0.9528,-0.9504,-0.9502,-0.95,-0.9522,-0.9487,-0.9487,-0.9487,-0.9522,-0.9523,-0.9525,0,0,0,0,0,0,-0.9604,-0.9603,-0.9583,-0.9588,-0.9585,-0.9559,-0.9557,-0.9552,-0.9549,-0.9525,-0.952,-0.9532,-0.9503,-0.9501,-0.9506,-0.952,-0.9487,-0.9487,-0.9521,-0.9523,-0.9524,-0.9566,0,0,0,0,0,0,-0.9605,-0.9603,-0.9611,-0.9589,-0.9585,-0.9589,-0.9558,-0.9552,-0.9549,-0.9545,-0.9525,-0.9521,-0.9502,-0.9507,-0.9506,-0.952,-0.9487,-0.952,-0.9522,-0.9524,-0.9563,-0.9569,-0.9574,0,0,0,0,0,-0.9606,-0.9624,-0.9611,-0.9609,-0.9593,-0.959,-0.9588,-0.9566,-0.955,-0.9557,-0.9542,-0.9522,-0.9519,-0.9508,-0.9507,-0.952,-0.9519,-0.9521,-0.9523,-0.9561,-0.9568,-0.9573,0,0,0,0,0,0,-0.9649,-0.9621,-0.9606,-0.9618,-0.9607,-0.9583,-0.9592,-0.9574,-0.9567,-0.9564,-0.9536,-0.9532,-0.9541,-0.9531,-0.9519,-0.9538,-0.9516,-0.9518,-0.9545,-0.9551,-0.9556,-0.9558,-0.9486,0,0,0,0,0,-0.966,-0.9659,-0.9635,-0.9647,-0.9642,-0.9618,-0.9616,-0.9599,-0.9587,-0.9582,-0.9567,-0.9556,-0.9552,-0.9551,-0.9547,-0.9561,-0.9556,-0.957,-0.9575,-0.9579,-0.9582,-0.9588,-0.9594,-0.9533,-0.9533,-0.9533,0,0,-0.9682,-0.9666,-0.9668,-0.9655,-0.9645,-0.9645,-0.9614,-0.9616,-0.9616,-0.9583,-0.9587,-0.9575,-0.9561,-0.9571,-0.9575,-0.9563,-0.9598,-0.9583,-0.9586,-0.9586,-0.9592,-0.9597,-0.9603,-0.9534,-0.9534,-0.9534,0,0,-0.9723,-0.9711,-0.972,-0.9709,-0.9694,-0.9677,-0.968,-0.9659,-0.965,-0.9653,-0.9628,-0.9627,-0.9622,-0.9613,-0.9608,-0.9644,-0.9625,-0.9643,-0.967,-0.9677,-0.9682,-0.9686,-0.9699,-0.9704,-0.9645,-0.9645,-0.9645,0,-0.9752,-0.9752,-0.9726,-0.973,-0.9725,-0.9693,-0.9702,-0.9693,-0.9677,-0.9675,-0.9661,-0.9654,-0.9642,-0.9649,-0.9658,-0.9655,-0.9656,-0.9645,-0.9683,-0.9687,-0.969,-0.9702,-0.9707,-0.9648,-0.9647,-0.9647,-0.9647,0,-0.9789,-0.9789,-0.9798,-0.9782,-0.9778,-0.9784,-0.976,-0.9759,-0.9742,-0.9727,-0.9731,-0.9715,-0.9707,-0.9707,-0.9692,-0.9712,-0.9705,-0.9688,-0.9665,-0.9699,-0.971,-0.9714,-0.9651,-0.965,-0.9649,-0.9649,0,0,-0.9857,-0.9827,-0.983,-0.9823,-0.9803,-0.9802,-0.9806,-0.9798,-0.9797,-0.9787,-0.9789,-0.9785,-0.9769,-0.9763,-0.9745,-0.9751,-0.978,-0.9733,-0.9732,-0.9742,-0.9802,-0.9815,-0.9821,-0.9767,-0.9768,-0.9769,-0.9803,0,-0.9894,-0.9899,-0.9876,-0.9888,-0.9887,-0.9857,-0.986,-0.9848,-0.9834,-0.9832,-0.9816,-0.9813,-0.9792,-0.9788,-0.9792,-0.9776,-0.9792,-0.9773,-0.977,-0.977,-0.9775,-0.9826,-0.9841,-0.9874,-0.9807,-0.9807,-0.9808,0,-0.9938,-0.993,-0.9941,-0.9919,-0.9918,-0.9922,-0.9912,-0.9909,-0.9895,-0.9884,-0.9877,-0.9857,-0.9859,-0.9836,-0.9839,-0.9827,-0.9824,-0.9816,-0.9816,-0.9816,-0.9791,-0.9827,-0.9884,-0.9889,-0.9814,-0.9814,-0.9813,0,-0.9987,-0.9978,-0.9983,-0.9978,-0.9953,-0.9956,-0.9946,-0.993,-0.9926,-0.9917,-0.9914,-0.9906,-0.9901,-0.9895,-0.9873,-0.9859,-0.9878,-0.9854,-0.9869,-0.987,-0.9876,-0.9876,-0.9933,-0.9873,-0.9873,-0.9873,-0.9873,0,-1.0031,-1.0039,-1.0005,-1.0008,-1.0016,-0.9989,-0.9998,-0.9985,-0.9971,-0.9971,-0.9944,-0.9945,-0.9916,-0.9913,-0.9896,-0.99,-0.9898,-0.989,-0.9885,-0.9892,-0.9894,-0.9891,-0.9888,-0.9874,-0.9874,-0.9874,-0.9874,0,-1.0087,-1.0064,-1.0068,-1.0044,-1.0038,-1.0045,-1.0024,-1.0026,-1.0009,-1.001,-1.0009,-0.9983,-0.9979,-0.9956,-0.9946,-0.9934,-0.9945,-0.9936,-0.995,-0.9947,-0.9964,-0.9963,-1.0021,-1.0028,-0.9964,-0.9965,-0.9965,0,-1.0116,-1.0122,-1.0098,-1.0096,-1.0087,-1.0084,-1.008,-1.0053,-1.0049,-1.0033,-1.0037,-1.003,-1.0023,-1.0017,-0.9998,-0.999,-0.998,-1.0001,-0.9979,-0.9986,-0.9981,-0.9981,-0.9981,-1.0007,-1.0007,-1.0008,-1.0009,0,-1.0172,-1.016,-1.0155,-1.0145,-1.014,-1.0132,-1.0121,-1.0121,-1.0092,-1.0089,-1.0084,-1.0078,-1.0068,-1.0061,-1.005,-1.0039,-1.0019,-1.0016,-1.0019,-1.0027,-1.0035,-1.003,-0.9963,-1.0015,-1.0014,-1.0014,-1.0013,-1.0013,-1.0216,-1.0219,-1.0202,-1.0197,-1.0186,-1.0177,-1.0177,-1.0161,-1.0156,-1.0145,-1.0129,-1.0126,-1.0111,-1.0093,-1.0084,-1.0081,-1.007,-1.0074,-1.0076,-1.0077,-1.0081,-1.0035,-1.0079,-1.0079,-1.0079,-1.0078,-1.0078,0,-1.027,-1.0257,-1.0252,-1.0238,-1.0234,-1.0215,-1.0202,-1.02,-1.0197,-1.0184,-1.0178,-1.0171,-1.0165,-1.0144,-1.0135,-1.0137,-1.0127,-1.0136,-1.0135,-1.0133,-1.0092,-1.009,-1.0143,-1.0143,-1.0143,-1.0143,-1.0143,-1.0143,-1.0297,-1.0301,-1.0288,-1.0286,-1.0273,-1.027,-1.0264,-1.0256,-1.0245,-1.0239,-1.0233,-1.022,-1.0204,-1.0193,-1.0186,-1.018,-1.0178,-1.019,-1.0181,-1.0142,-1.0136,-1.013,-1.0128,-1.0189,-1.0189,-1.0223,-1.0223,-1.0223]},{"header":{"parameterUnit":"m.s-1","parameterCategory":1,"la1":30.2991,"la2":30.254,"lo1":-89.0895,"lo2":-89.0444,"dy":0.0017,"dx":0.0017,"nx":28,"ny":28,"refTime":"2025-09-07T09:00:00:Z","depth":0,"parameterNumber":3,"parameterNumberName":"V-component_of_WINDS"},"data":[0,0,0,0,0,0,0,0,0,0,0,0,0,0,0,0,0,0,0,0,0,0,0,0,0,0,0,0,0,0,0,0,0,0,0,0,0,0,0,0,0,0,0,0,0,0,0,0,0,0,0,0,0,0,0,0,0,0,-3.7462,-3.7462,0,-3.7495,-3.7495,-3.7496,-3.7511,-3.7511,-3.7511,-3.7511,-3.7541,-3.7541,-3.7542,0,0,0,0,0,0,0,0,0,0,0,0,0,-3.7409,-3.741,-3.7461,-3.7462,-3.7462,-3.7495,-3.7495,-3.7496,-3.7511,-3.7511,-3.7511,-3.7511,-3.754,-3.7541,-3.7542,0,0,0,0,0,0,0,0,0,0,0,0,0,-3.7436,-3.741,-3.7461,-3.7474,-3.7475,-3.7495,-3.7495,-3.7496,-3.7511,-3.7511,-3.7511,-3.7511,-3.754,-3.7541,-3.7542,-3.755,0,0,-3.7546,-3.7547,0,0,0,0,0,0,0,0,-3.7434,-3.7438,-3.7472,-3.7473,-3.7475,-3.7499,-3.7488,-3.7514,-3.7511,-3.7497,-3.7511,-3.7511,-3.7526,-3.7529,-3.7535,-3.7552,-3.7553,-3.7546,-3.7547,-3.7547,-3.7548,0,0,0,0,0,0,0,-3.7433,-3.7436,-3.7474,-3.7472,-3.7474,-3.7477,-3.7481,-3.7493,-3.7511,-3.7498,-3.75,-3.7504,-3.7527,-3.7534,-3.7536,-3.7553,-3.7546,-3.7547,-3.7548,-3.7549,-3.7581,-3.7581,0,0,0,0,0,0,-3.7429,-3.7435,-3.7473,-3.7476,-3.7454,-3.7478,-3.7482,-3.7491,-3.7511,-3.7515,-3.7504,-3.7504,-3.7532,-3.7534,-3.7537,-3.7549,-3.7547,-3.7549,-3.7549,-3.7581,-3.7581,-3.7581,0,0,0,0,0,0,-3.7428,-3.7432,-3.7472,-3.7456,-3.7461,-3.7479,-3.7489,-3.7492,-3.7498,-3.7515,-3.7518,-3.7507,-3.7532,-3.7535,-3.7548,-3.755,-3.7549,-3.755,-3.7581,-3.7581,-3.7581,-3.7573,0,0,0,0,0,0,-3.7426,-3.7432,-3.7435,-3.7456,-3.7462,-3.7483,-3.7489,-3.7492,-3.7501,-3.7502,-3.7519,-3.7522,-3.7532,-3.7546,-3.7549,-3.7552,-3.7551,-3.7581,-3.7581,-3.7581,-3.7573,-3.7573,-3.7573,0,0,0,0,0,-3.7424,-3.743,-3.7435,-3.744,-3.7467,-3.7483,-3.7487,-3.7499,-3.7501,-3.7505,-3.7516,-3.7522,-3.755,-3.7547,-3.7551,-3.7554,-3.758,-3.7581,-3.7581,-3.7573,-3.7573,-3.7573,0,0,0,0,0,0,-3.7407,-3.7433,-3.7439,-3.7452,-3.7465,-3.7486,-3.749,-3.7498,-3.751,-3.7511,-3.7524,-3.7528,-3.754,-3.7548,-3.7545,-3.7564,-3.7566,-3.7567,-3.7558,-3.7558,-3.7558,-3.7556,-3.7552,0,0,0,0,0,-3.7405,-3.7418,-3.7439,-3.7448,-3.7455,-3.7472,-3.7479,-3.7488,-3.7502,-3.7508,-3.752,-3.7532,-3.7544,-3.7552,-3.7563,-3.7575,-3.7579,-3.7579,-3.7579,-3.7578,-3.7579,-3.7588,-3.7588,-3.7582,-3.7582,-3.7582,0,0,-3.74,-3.7416,-3.7422,-3.7445,-3.7457,-3.7469,-3.7476,-3.7488,-3.7497,-3.7509,-3.7523,-3.7532,-3.7547,-3.756,-3.7566,-3.7567,-3.7582,-3.7579,-3.7579,-3.758,-3.7588,-3.7589,-3.7589,-3.7583,-3.7582,-3.7582,0,0,-3.7399,-3.7411,-3.7422,-3.7434,-3.7453,-3.7464,-3.7467,-3.7487,-3.7495,-3.7509,-3.7519,-3.7529,-3.7549,-3.756,-3.7568,-3.7574,-3.758,-3.7577,-3.7576,-3.7585,-3.7585,-3.7586,-3.7589,-3.759,-3.7578,-3.7578,-3.7578,0,-3.739,-3.741,-3.7425,-3.7438,-3.7448,-3.7462,-3.7473,-3.7483,-3.7504,-3.751,-3.7512,-3.7539,-3.755,-3.7567,-3.7568,-3.7574,-3.7578,-3.7575,-3.7584,-3.7585,-3.7586,-3.7589,-3.759,-3.7578,-3.7578,-3.7578,-3.7578,0,-3.7399,-3.7413,-3.7419,-3.7442,-3.7452,-3.7464,-3.7481,-3.749,-3.7498,-3.751,-3.7525,-3.7539,-3.7555,-3.756,-3.7567,-3.7578,-3.7578,-3.7582,-3.7583,-3.7586,-3.7589,-3.759,-3.7577,-3.7577,-3.7578,-3.7578,0,0,-3.7385,-3.7419,-3.7421,-3.7433,-3.7456,-3.7467,-3.7479,-3.7497,-3.7505,-3.7519,-3.7531,-3.7549,-3.7553,-3.7562,-3.7571,-3.7578,-3.7584,-3.7581,-3.7582,-3.7582,-3.7599,-3.7597,-3.7599,-3.7589,-3.7589,-3.7589,-3.7599,0,-3.7387,-3.7412,-3.7428,-3.7446,-3.746,-3.7475,-3.7486,-3.7501,-3.7513,-3.7526,-3.7538,-3.7552,-3.7555,-3.7562,-3.7569,-3.7582,-3.7588,-3.7581,-3.7599,-3.76,-3.7596,-3.76,-3.7597,-3.7605,-3.76,-3.76,-3.76,0,-3.7392,-3.741,-3.743,-3.7455,-3.7461,-3.7471,-3.749,-3.7503,-3.7521,-3.7529,-3.7541,-3.7551,-3.7565,-3.7566,-3.7586,-3.7581,-3.7589,-3.7597,-3.7597,-3.76,-3.76,-3.7604,-3.7608,-3.761,-3.7602,-3.7602,-3.7602,0,-3.7382,-3.741,-3.7427,-3.7437,-3.7465,-3.7472,-3.7484,-3.7502,-3.7513,-3.7529,-3.7536,-3.7553,-3.7562,-3.7575,-3.7589,-3.7588,-3.7608,-3.761,-3.7615,-3.7615,-3.7619,-3.7619,-3.7626,-3.7623,-3.7623,-3.7623,-3.7623,0,-3.7383,-3.7395,-3.7424,-3.7434,-3.7449,-3.7467,-3.748,-3.7493,-3.751,-3.7523,-3.7536,-3.7547,-3.7565,-3.7579,-3.759,-3.7606,-3.7609,-3.7616,-3.7619,-3.7616,-3.7615,-3.7621,-3.7622,-3.7623,-3.7623,-3.7623,-3.7623,0,-3.7374,-3.7393,-3.7413,-3.744,-3.7447,-3.7456,-3.7479,-3.749,-3.7503,-3.7519,-3.7524,-3.7545,-3.7562,-3.7578,-3.7599,-3.7607,-3.7624,-3.7627,-3.7618,-3.762,-3.7625,-3.7625,-3.7637,-3.7641,-3.7635,-3.7635,-3.7635,0,-3.7373,-3.7384,-3.7413,-3.7424,-3.7437,-3.7453,-3.7465,-3.7484,-3.7496,-3.7519,-3.7527,-3.7546,-3.7562,-3.7589,-3.7605,-3.7622,-3.7626,-3.763,-3.7629,-3.7626,-3.7628,-3.7628,-3.763,-3.7629,-3.7629,-3.7629,-3.7629,0,-3.7371,-3.7381,-3.7399,-3.7421,-3.7436,-3.7453,-3.7471,-3.7479,-3.7501,-3.7514,-3.7533,-3.7546,-3.757,-3.7589,-3.7609,-3.762,-3.7629,-3.763,-3.7632,-3.7629,-3.7624,-3.7629,-3.7619,-3.7629,-3.7629,-3.7629,-3.7629,-3.7629,-3.7367,-3.7378,-3.7402,-3.7422,-3.7438,-3.7455,-3.7468,-3.7484,-3.7501,-3.7524,-3.7534,-3.7554,-3.7573,-3.7602,-3.7613,-3.7629,-3.763,-3.7633,-3.7634,-3.7635,-3.7635,-3.7622,-3.7632,-3.7632,-3.7632,-3.7632,-3.7632,0,-3.7367,-3.7384,-3.7402,-3.7429,-3.7445,-3.7454,-3.7475,-3.7488,-3.7506,-3.7524,-3.7541,-3.7564,-3.7583,-3.7602,-3.7622,-3.7631,-3.7636,-3.7636,-3.7635,-3.7638,-3.7632,-3.7629,-3.7632,-3.7632,-3.7632,-3.7632,-3.7632,-3.7632,-3.7369,-3.7389,-3.7402,-3.7431,-3.7447,-3.7469,-3.748,-3.7497,-3.7512,-3.7538,-3.7555,-3.7568,-3.7587,-3.7609,-3.7627,-3.7632,-3.7639,-3.7639,-3.7645,-3.7639,-3.7638,-3.7638,-3.7635,-3.764,-3.764,-3.765,-3.765,-3.765]}]]